Year,Month,Day,Hour,Minute,Value (Times are PST for temperature in C)
2009,04,24,00,00,4.60
2009,04,24,00,01,4.60
2009,04,24,00,02,4.60
2009,04,24,00,03,4.60
2009,04,24,00,04,4.60
2009,04,24,00,05,4.50
2009,04,24,00,06,4.50
2009,04,24,00,07,4.50
2009,04,24,00,08,4.50
2009,04,24,00,09,4.50
2009,04,24,00,10,4.50
2009,04,24,00,11,4.50
2009,04,24,00,12,4.50
2009,04,24,00,13,4.40
2009,04,24,00,14,4.40
2009,04,24,00,15,4.40
2009,04,24,00,16,4.40
2009,04,24,00,17,4.40
2009,04,24,00,18,4.40
2009,04,24,00,19,4.40
2009,04,24,00,20,4.40
2009,04,24,00,21,4.30
2009,04,24,00,22,4.30
2009,04,24,00,23,4.30
2009,04,24,00,24,4.30
2009,04,24,00,25,4.30
2009,04,24,00,26,4.30
2009,04,24,00,27,4.30
2009,04,24,00,28,4.30
2009,04,24,00,29,4.20
2009,04,24,00,30,4.20
2009,04,24,00,31,4.20
2009,04,24,00,32,4.20
2009,04,24,00,33,4.20
2009,04,24,00,34,4.20
2009,04,24,00,35,4.20
2009,04,24,00,36,4.20
2009,04,24,00,37,4.20
2009,04,24,00,38,4.20
2009,04,24,00,39,4.20
2009,04,24,00,40,4.20
2009,04,24,00,41,4.20
2009,04,24,00,42,4.20
2009,04,24,00,43,4.20
2009,04,24,00,44,4.20
2009,04,24,00,45,4.20
2009,04,24,00,46,4.20
2009,04,24,00,47,4.20
2009,04,24,00,48,4.20
2009,04,24,00,49,4.10
2009,04,24,00,50,4.10
2009,04,24,00,51,4.10
2009,04,24,00,52,4.10
2009,04,24,00,53,4.10
2009,04,24,00,54,4.00
2009,04,24,00,55,4.00
2009,04,24,00,56,4.00
2009,04,24,00,57,4.00
2009,04,24,00,58,4.00
2009,04,24,00,59,4.00
2009,04,24,01,00,3.90
2009,04,24,01,01,3.90
2009,04,24,01,02,3.90
2009,04,24,01,03,3.90
2009,04,24,01,04,3.90
2009,04,24,01,05,3.90
2009,04,24,01,06,3.90
2009,04,24,01,07,3.90
2009,04,24,01,08,3.80
2009,04,24,01,09,3.80
2009,04,24,01,10,3.80
2009,04,24,01,11,3.80
2009,04,24,01,12,3.80
2009,04,24,01,13,3.80
2009,04,24,01,14,3.80
2009,04,24,01,15,3.80
2009,04,24,01,16,3.80
2009,04,24,01,17,3.80
2009,04,24,01,18,3.80
2009,04,24,01,19,3.80
2009,04,24,01,20,3.80
2009,04,24,01,21,3.80
2009,04,24,01,22,3.80
2009,04,24,01,23,3.80
2009,04,24,01,24,3.80
2009,04,24,01,25,3.80
2009,04,24,01,26,3.80
2009,04,24,01,27,3.80
2009,04,24,01,28,3.80
2009,04,24,01,29,3.70
2009,04,24,01,30,3.70
2009,04,24,01,31,3.70
2009,04,24,01,32,3.70
2009,04,24,01,33,3.70
2009,04,24,01,34,3.70
2009,04,24,01,35,3.70
2009,04,24,01,36,3.70
2009,04,24,01,37,3.70
2009,04,24,01,38,3.70
2009,04,24,01,39,3.70
2009,04,24,01,40,3.70
2009,04,24,01,41,3.70
2009,04,24,01,42,3.70
2009,04,24,01,43,3.70
2009,04,24,01,44,3.70
2009,04,24,01,45,3.70
2009,04,24,01,46,3.70
2009,04,24,01,47,3.70
2009,04,24,01,48,3.70
2009,04,24,01,49,3.70
2009,04,24,01,50,3.70
2009,04,24,01,51,3.70
2009,04,24,01,52,3.70
2009,04,24,01,53,3.70
2009,04,24,01,54,3.80
2009,04,24,01,55,3.80
2009,04,24,01,56,3.80
2009,04,24,01,57,3.80
2009,04,24,01,58,3.80
2009,04,24,01,59,3.80
2009,04,24,02,00,3.80
2009,04,24,02,01,3.80
2009,04,24,02,02,3.80
2009,04,24,02,03,3.80
2009,04,24,02,04,3.80
2009,04,24,02,05,3.80
2009,04,24,02,06,3.80
2009,04,24,02,07,3.80
2009,04,24,02,08,3.80
2009,04,24,02,09,3.80
2009,04,24,02,10,3.80
2009,04,24,02,11,3.70
2009,04,24,02,12,3.70
2009,04,24,02,13,3.70
2009,04,24,02,14,3.70
2009,04,24,02,15,3.70
2009,04,24,02,16,3.70
2009,04,24,02,17,3.70
2009,04,24,02,18,3.60
2009,04,24,02,19,3.60
2009,04,24,02,20,3.60
2009,04,24,02,21,3.60
2009,04,24,02,22,3.60
2009,04,24,02,23,3.60
2009,04,24,02,24,3.60
2009,04,24,02,25,3.50
2009,04,24,02,26,3.50
2009,04,24,02,27,3.50
2009,04,24,02,28,3.50
2009,04,24,02,29,3.50
2009,04,24,02,30,3.50
2009,04,24,02,31,3.50
2009,04,24,02,32,3.50
2009,04,24,02,33,3.50
2009,04,24,02,34,3.40
2009,04,24,02,35,3.40
2009,04,24,02,36,3.40
2009,04,24,02,37,3.40
2009,04,24,02,38,3.40
2009,04,24,02,39,3.40
2009,04,24,02,40,3.40
2009,04,24,02,41,3.40
2009,04,24,02,42,3.40
2009,04,24,02,43,3.40
2009,04,24,02,44,3.40
2009,04,24,02,45,3.40
2009,04,24,02,46,3.40
2009,04,24,02,47,3.40
2009,04,24,02,48,3.40
2009,04,24,02,49,3.40
2009,04,24,02,50,3.40
2009,04,24,02,51,3.30
2009,04,24,02,52,3.30
2009,04,24,02,53,3.30
2009,04,24,02,54,3.30
2009,04,24,02,55,3.30
2009,04,24,02,56,3.30
2009,04,24,02,57,3.30
2009,04,24,02,58,3.30
2009,04,24,02,59,3.30
2009,04,24,03,00,3.30
2009,04,24,03,01,3.30
2009,04,24,03,02,3.30
2009,04,24,03,03,3.30
2009,04,24,03,04,3.30
2009,04,24,03,05,3.30
2009,04,24,03,06,3.30
2009,04,24,03,07,3.30
2009,04,24,03,08,3.30
2009,04,24,03,09,3.30
2009,04,24,03,10,3.30
2009,04,24,03,11,3.30
2009,04,24,03,12,3.30
2009,04,24,03,13,3.30
2009,04,24,03,14,3.30
2009,04,24,03,15,3.30
2009,04,24,03,16,3.30
2009,04,24,03,17,3.30
2009,04,24,03,18,3.30
2009,04,24,03,19,3.30
2009,04,24,03,20,3.30
2009,04,24,03,21,3.30
2009,04,24,03,22,3.30
2009,04,24,03,23,3.20
2009,04,24,03,24,3.20
2009,04,24,03,25,3.20
2009,04,24,03,26,3.20
2009,04,24,03,27,3.20
2009,04,24,03,28,3.20
2009,04,24,03,29,3.20
2009,04,24,03,30,3.20
2009,04,24,03,31,3.20
2009,04,24,03,32,3.20
2009,04,24,03,33,3.20
2009,04,24,03,34,3.20
2009,04,24,03,35,3.20
2009,04,24,03,36,3.10
2009,04,24,03,37,3.10
2009,04,24,03,38,3.10
2009,04,24,03,39,3.10
2009,04,24,03,40,3.10
2009,04,24,03,41,3.10
2009,04,24,03,42,3.10
2009,04,24,03,43,3.10
2009,04,24,03,44,3.10
2009,04,24,03,45,3.10
2009,04,24,03,46,3.10
2009,04,24,03,47,3.10
2009,04,24,03,48,3.10
2009,04,24,03,49,3.10
2009,04,24,03,50,3.10
2009,04,24,03,51,3.10
2009,04,24,03,52,3.10
2009,04,24,03,53,3.10
2009,04,24,03,54,3.00
2009,04,24,03,55,2.90
2009,04,24,03,56,2.90
2009,04,24,03,57,2.90
2009,04,24,03,58,2.90
2009,04,24,03,59,2.90
2009,04,24,04,00,2.90
2009,04,24,04,01,2.90
2009,04,24,04,02,2.90
2009,04,24,04,03,2.90
2009,04,24,04,04,2.90
2009,04,24,04,05,2.90
2009,04,24,04,06,2.90
2009,04,24,04,07,2.90
2009,04,24,04,08,2.90
2009,04,24,04,09,2.90
2009,04,24,04,10,2.90
2009,04,24,04,11,2.90
2009,04,24,04,12,2.90
2009,04,24,04,13,2.90
2009,04,24,04,14,2.90
2009,04,24,04,15,2.90
2009,04,24,04,16,2.90
2009,04,24,04,17,2.90
2009,04,24,04,18,2.90
2009,04,24,04,19,2.90
2009,04,24,04,20,2.90
2009,04,24,04,21,2.90
2009,04,24,04,22,2.90
2009,04,24,04,23,2.90
2009,04,24,04,24,2.90
2009,04,24,04,25,2.90
2009,04,24,04,26,2.90
2009,04,24,04,27,2.90
2009,04,24,04,28,2.90
2009,04,24,04,29,3.00
2009,04,24,04,30,3.10
2009,04,24,04,31,3.10
2009,04,24,04,32,3.10
2009,04,24,04,33,3.10
2009,04,24,04,34,3.10
2009,04,24,04,35,3.10
2009,04,24,04,36,3.10
2009,04,24,04,37,3.10
2009,04,24,04,38,3.10
2009,04,24,04,39,3.10
2009,04,24,04,40,3.10
2009,04,24,04,41,3.10
2009,04,24,04,42,3.10
2009,04,24,04,43,3.10
2009,04,24,04,44,3.10
2009,04,24,04,45,3.10
2009,04,24,04,46,3.10
2009,04,24,04,47,3.10
2009,04,24,04,48,3.20
2009,04,24,04,49,3.20
2009,04,24,04,50,3.20
2009,04,24,04,51,3.20
2009,04,24,04,52,3.20
2009,04,24,04,53,3.20
2009,04,24,04,54,3.20
2009,04,24,04,55,3.20
2009,04,24,04,56,3.20
2009,04,24,04,57,3.20
2009,04,24,04,58,3.20
2009,04,24,04,59,3.20
2009,04,24,05,00,3.20
2009,04,24,05,01,3.20
2009,04,24,05,02,3.20
2009,04,24,05,03,3.20
2009,04,24,05,04,3.20
2009,04,24,05,05,3.20
2009,04,24,05,06,3.20
2009,04,24,05,07,3.20
2009,04,24,05,08,3.20
2009,04,24,05,09,3.20
2009,04,24,05,10,3.30
2009,04,24,05,11,3.30
2009,04,24,05,12,3.30
2009,04,24,05,13,3.30
2009,04,24,05,14,3.30
2009,04,24,05,15,3.30
2009,04,24,05,16,3.30
2009,04,24,05,17,3.30
2009,04,24,05,18,3.30
2009,04,24,05,19,3.30
2009,04,24,05,20,3.30
2009,04,24,05,21,3.30
2009,04,24,05,22,3.30
2009,04,24,05,23,3.30
2009,04,24,05,24,3.30
2009,04,24,05,25,3.30
2009,04,24,05,26,3.30
2009,04,24,05,27,3.30
2009,04,24,05,28,3.30
2009,04,24,05,29,3.30
2009,04,24,05,30,3.30
2009,04,24,05,31,3.30
2009,04,24,05,32,3.30
2009,04,24,05,33,3.30
2009,04,24,05,34,3.30
2009,04,24,05,35,3.30
2009,04,24,05,36,3.30
2009,04,24,05,37,3.30
2009,04,24,05,38,3.30
2009,04,24,05,39,3.30
2009,04,24,05,40,3.30
2009,04,24,05,41,3.30
2009,04,24,05,42,3.30
2009,04,24,05,43,3.30
2009,04,24,05,44,3.30
2009,04,24,05,45,3.30
2009,04,24,05,46,3.30
2009,04,24,05,47,3.30
2009,04,24,05,48,3.30
2009,04,24,05,49,3.30
2009,04,24,05,50,3.30
2009,04,24,05,51,3.30
2009,04,24,05,52,3.30
2009,04,24,05,53,3.30
2009,04,24,05,54,3.30
2009,04,24,05,55,3.30
2009,04,24,05,56,3.30
2009,04,24,05,57,3.30
2009,04,24,05,58,3.30
2009,04,24,05,59,3.40
2009,04,24,06,00,3.40
2009,04,24,06,01,3.40
2009,04,24,06,02,3.40
2009,04,24,06,03,3.40
2009,04,24,06,04,3.40
2009,04,24,06,05,3.40
2009,04,24,06,06,3.40
2009,04,24,06,07,3.40
2009,04,24,06,08,3.50
2009,04,24,06,09,3.50
2009,04,24,06,10,3.40
2009,04,24,06,11,3.40
2009,04,24,06,12,3.40
2009,04,24,06,13,3.40
2009,04,24,06,14,3.40
2009,04,24,06,15,3.40
2009,04,24,06,16,3.40
2009,04,24,06,17,3.40
2009,04,24,06,18,3.40
2009,04,24,06,19,3.40
2009,04,24,06,20,3.40
2009,04,24,06,21,3.40
2009,04,24,06,22,3.40
2009,04,24,06,23,3.40
2009,04,24,06,24,3.40
2009,04,24,06,25,3.40
2009,04,24,06,26,3.40
2009,04,24,06,27,3.40
2009,04,24,06,28,3.40
2009,04,24,06,29,3.40
2009,04,24,06,30,3.40
2009,04,24,06,31,3.40
2009,04,24,06,32,3.40
2009,04,24,06,33,3.40
2009,04,24,06,34,3.40
2009,04,24,06,35,3.40
2009,04,24,06,36,3.40
2009,04,24,06,37,3.40
2009,04,24,06,38,3.50
2009,04,24,06,39,3.50
2009,04,24,06,40,3.60
2009,04,24,06,41,3.60
2009,04,24,06,42,3.60
2009,04,24,06,43,3.70
2009,04,24,06,44,3.70
2009,04,24,06,45,3.70
2009,04,24,06,46,3.70
2009,04,24,06,47,3.70
2009,04,24,06,48,3.70
2009,04,24,06,49,3.70
2009,04,24,06,50,3.70
2009,04,24,06,51,3.80
2009,04,24,06,52,3.80
2009,04,24,06,53,3.80
2009,04,24,06,54,3.80
2009,04,24,06,55,3.80
2009,04,24,06,56,3.80
2009,04,24,06,57,3.80
2009,04,24,06,58,3.80
2009,04,24,06,59,3.80
2009,04,24,07,00,3.80
2009,04,24,07,01,3.80
2009,04,24,07,02,3.80
2009,04,24,07,03,3.80
2009,04,24,07,04,3.80
2009,04,24,07,05,3.90
2009,04,24,07,06,4.00
2009,04,24,07,07,4.00
2009,04,24,07,08,4.00
2009,04,24,07,09,4.10
2009,04,24,07,10,4.10
2009,04,24,07,11,4.20
2009,04,24,07,12,4.20
2009,04,24,07,13,4.20
2009,04,24,07,14,4.20
2009,04,24,07,15,4.20
2009,04,24,07,16,4.20
2009,04,24,07,17,4.30
2009,04,24,07,18,4.30
2009,04,24,07,19,4.40
2009,04,24,07,20,4.40
2009,04,24,07,21,4.50
2009,04,24,07,22,4.50
2009,04,24,07,23,4.50
2009,04,24,07,24,4.60
2009,04,24,07,25,4.60
2009,04,24,07,26,4.60
2009,04,24,07,27,4.70
2009,04,24,07,28,4.70
2009,04,24,07,29,4.80
2009,04,24,07,30,4.80
2009,04,24,07,31,4.90
2009,04,24,07,32,4.90
2009,04,24,07,33,4.90
2009,04,24,07,34,5.00
2009,04,24,07,35,5.10
2009,04,24,07,36,5.10
2009,04,24,07,37,5.10
2009,04,24,07,38,5.10
2009,04,24,07,39,5.10
2009,04,24,07,40,5.20
2009,04,24,07,41,5.20
2009,04,24,07,42,5.30
2009,04,24,07,43,5.30
2009,04,24,07,44,5.40
2009,04,24,07,45,5.40
2009,04,24,07,46,5.50
2009,04,24,07,47,5.50
2009,04,24,07,48,5.60
2009,04,24,07,49,5.70
2009,04,24,07,50,5.70
2009,04,24,07,51,5.70
2009,04,24,07,52,5.80
2009,04,24,07,53,5.80
2009,04,24,07,54,5.90
2009,04,24,07,55,5.90
2009,04,24,07,56,6.00
2009,04,24,07,57,6.00
2009,04,24,07,58,6.00
2009,04,24,07,59,6.10
2009,04,24,08,00,6.20
2009,04,24,08,01,6.20
2009,04,24,08,02,6.20
2009,04,24,08,03,6.20
2009,04,24,08,04,6.30
2009,04,24,08,05,6.30
2009,04,24,08,06,6.30
2009,04,24,08,07,6.40
2009,04,24,08,08,6.40
2009,04,24,08,09,6.40
2009,04,24,08,10,6.40
2009,04,24,08,11,6.50
2009,04,24,08,12,6.60
2009,04,24,08,13,6.60
2009,04,24,08,14,6.60
2009,04,24,08,15,6.60
2009,04,24,08,16,6.70
2009,04,24,08,17,6.70
2009,04,24,08,18,6.80
2009,04,24,08,19,6.80
2009,04,24,08,20,6.80
2009,04,24,08,21,6.90
2009,04,24,08,22,6.90
2009,04,24,08,23,6.90
2009,04,24,08,24,7.00
2009,04,24,08,25,7.00
2009,04,24,08,26,7.00
2009,04,24,08,27,7.00
2009,04,24,08,28,7.00
2009,04,24,08,29,7.00
2009,04,24,08,30,7.00
2009,04,24,08,31,7.00
2009,04,24,08,32,7.00
2009,04,24,08,33,7.10
2009,04,24,08,34,7.10
2009,04,24,08,35,7.10
2009,04,24,08,36,7.10
2009,04,24,08,37,7.20
2009,04,24,08,38,7.20
2009,04,24,08,39,7.20
2009,04,24,08,40,7.20
2009,04,24,08,41,7.20
2009,04,24,08,42,7.30
2009,04,24,08,43,7.30
2009,04,24,08,44,7.30
2009,04,24,08,45,7.30
2009,04,24,08,46,7.30
2009,04,24,08,47,7.30
2009,04,24,08,48,7.30
2009,04,24,08,49,7.30
2009,04,24,08,50,7.30
2009,04,24,08,51,7.40
2009,04,24,08,52,7.40
2009,04,24,08,53,7.40
2009,04,24,08,54,7.40
2009,04,24,08,55,7.50
2009,04,24,08,56,7.50
2009,04,24,08,57,7.50
2009,04,24,08,58,7.50
2009,04,24,08,59,7.50
2009,04,24,09,00,7.50
2009,04,24,09,01,7.50
2009,04,24,09,02,7.50
2009,04,24,09,03,7.40
2009,04,24,09,04,7.40
2009,04,24,09,05,7.40
2009,04,24,09,06,7.40
2009,04,24,09,07,7.40
2009,04,24,09,08,7.40
2009,04,24,09,09,7.40
2009,04,24,09,10,7.50
2009,04,24,09,11,7.50
2009,04,24,09,12,7.50
2009,04,24,09,13,7.50
2009,04,24,09,14,7.60
2009,04,24,09,15,7.60
2009,04,24,09,16,7.70
2009,04,24,09,17,7.70
2009,04,24,09,18,7.70
2009,04,24,09,19,7.80
2009,04,24,09,20,7.80
2009,04,24,09,21,7.80
2009,04,24,09,22,7.80
2009,04,24,09,23,7.90
2009,04,24,09,24,8.00
2009,04,24,09,25,8.10
2009,04,24,09,26,8.20
2009,04,24,09,27,8.20
2009,04,24,09,28,8.30
2009,04,24,09,29,8.30
2009,04,24,09,30,8.40
2009,04,24,09,31,8.40
2009,04,24,09,32,8.50
2009,04,24,09,33,8.50
2009,04,24,09,34,8.50
2009,04,24,09,35,8.50
2009,04,24,09,36,8.40
2009,04,24,09,37,8.40
2009,04,24,09,38,8.30
2009,04,24,09,39,8.30
2009,04,24,09,40,8.20
2009,04,24,09,41,8.20
2009,04,24,09,42,8.20
2009,04,24,09,43,8.20
2009,04,24,09,44,8.20
2009,04,24,09,45,8.20
2009,04,24,09,46,8.30
2009,04,24,09,47,8.30
2009,04,24,09,48,8.40
2009,04,24,09,49,8.50
2009,04,24,09,50,8.60
2009,04,24,09,51,8.60
2009,04,24,09,52,8.60
2009,04,24,09,53,8.50
2009,04,24,09,54,8.50
2009,04,24,09,55,8.40
2009,04,24,09,56,8.40
2009,04,24,09,57,8.40
2009,04,24,09,58,8.40
2009,04,24,09,59,8.50
2009,04,24,10,00,8.60
2009,04,24,10,01,8.70
2009,04,24,10,02,8.70
2009,04,24,10,03,8.80
2009,04,24,10,04,8.80
2009,04,24,10,05,8.90
2009,04,24,10,06,8.90
2009,04,24,10,07,9.00
2009,04,24,10,08,9.00
2009,04,24,10,09,9.00
2009,04,24,10,10,9.10
2009,04,24,10,11,9.10
2009,04,24,10,12,9.10
2009,04,24,10,13,9.10
2009,04,24,10,14,9.20
2009,04,24,10,15,9.20
2009,04,24,10,16,9.30
2009,04,24,10,17,9.40
2009,04,24,10,18,9.50
2009,04,24,10,19,9.60
2009,04,24,10,20,9.60
2009,04,24,10,21,9.60
2009,04,24,10,22,9.60
2009,04,24,10,23,9.60
2009,04,24,10,24,9.60
2009,04,24,10,25,9.60
2009,04,24,10,26,9.60
2009,04,24,10,27,9.50
2009,04,24,10,28,9.50
2009,04,24,10,29,9.40
2009,04,24,10,30,9.40
2009,04,24,10,31,9.40
2009,04,24,10,32,9.40
2009,04,24,10,33,9.40
2009,04,24,10,34,9.40
2009,04,24,10,35,9.40
2009,04,24,10,36,9.40
2009,04,24,10,37,9.50
2009,04,24,10,38,9.50
2009,04,24,10,39,9.60
2009,04,24,10,40,9.70
2009,04,24,10,41,9.80
2009,04,24,10,42,9.80
2009,04,24,10,43,9.90
2009,04,24,10,44,9.90
2009,04,24,10,45,9.90
2009,04,24,10,46,9.90
2009,04,24,10,47,9.80
2009,04,24,10,48,9.70
2009,04,24,10,49,9.70
2009,04,24,10,50,9.60
2009,04,24,10,51,9.50
2009,04,24,10,52,9.50
2009,04,24,10,53,9.40
2009,04,24,10,54,9.40
2009,04,24,10,55,9.40
2009,04,24,10,56,9.40
2009,04,24,10,57,9.40
2009,04,24,10,58,9.40
2009,04,24,10,59,9.40
2009,04,24,11,00,9.50
2009,04,24,11,01,9.50
2009,04,24,11,02,9.50
2009,04,24,11,03,9.40
2009,04,24,11,04,9.40
2009,04,24,11,05,9.40
2009,04,24,11,06,9.40
2009,04,24,11,07,9.40
2009,04,24,11,08,9.40
2009,04,24,11,09,9.40
2009,04,24,11,10,9.30
2009,04,24,11,11,9.40
2009,04,24,11,12,9.40
2009,04,24,11,13,9.40
2009,04,24,11,14,9.40
2009,04,24,11,15,9.40
2009,04,24,11,16,9.40
2009,04,24,11,17,9.40
2009,04,24,11,18,9.40
2009,04,24,11,19,9.50
2009,04,24,11,20,9.50
2009,04,24,11,21,9.60
2009,04,24,11,22,9.60
2009,04,24,11,23,9.60
2009,04,24,11,24,9.70
2009,04,24,11,25,9.70
2009,04,24,11,26,9.70
2009,04,24,11,27,9.70
2009,04,24,11,28,9.70
2009,04,24,11,29,9.80
2009,04,24,11,30,9.80
2009,04,24,11,31,9.80
2009,04,24,11,32,9.90
2009,04,24,11,33,9.90
2009,04,24,11,34,9.90
2009,04,24,11,35,10.00
2009,04,24,11,36,10.10
2009,04,24,11,37,10.10
2009,04,24,11,38,10.20
2009,04,24,11,39,10.30
2009,04,24,11,40,10.50
2009,04,24,11,41,10.60
2009,04,24,11,42,10.60
2009,04,24,11,43,10.60
2009,04,24,11,44,10.60
2009,04,24,11,45,10.60
2009,04,24,11,46,10.50
2009,04,24,11,47,10.40
2009,04,24,11,48,10.30
2009,04,24,11,49,10.30
2009,04,24,11,50,10.20
2009,04,24,11,51,10.20
2009,04,24,11,52,10.10
2009,04,24,11,53,10.20
2009,04,24,11,54,10.20
2009,04,24,11,55,10.20
2009,04,24,11,56,10.20
2009,04,24,11,57,10.10
2009,04,24,11,58,10.10
2009,04,24,11,59,10.10
2009,04,24,12,00,10.10
2009,04,24,12,01,10.10
2009,04,24,12,02,10.10
2009,04,24,12,03,10.10
2009,04,24,12,04,10.10
2009,04,24,12,05,10.10
2009,04,24,12,06,10.10
2009,04,24,12,07,10.10
2009,04,24,12,08,10.10
2009,04,24,12,09,10.10
2009,04,24,12,10,10.10
2009,04,24,12,11,10.10
2009,04,24,12,12,10.10
2009,04,24,12,13,10.10
2009,04,24,12,14,10.10
2009,04,24,12,15,10.10
2009,04,24,12,16,10.10
2009,04,24,12,17,10.00
2009,04,24,12,18,9.90
2009,04,24,12,19,9.90
2009,04,24,12,20,9.90
2009,04,24,12,21,9.90
2009,04,24,12,22,9.90
2009,04,24,12,23,9.90
2009,04,24,12,24,9.90
2009,04,24,12,25,10.10
2009,04,24,12,26,10.10
2009,04,24,12,27,10.10
2009,04,24,12,28,10.10
2009,04,24,12,29,10.10
2009,04,24,12,30,10.10
2009,04,24,12,31,10.20
2009,04,24,12,32,10.20
2009,04,24,12,33,10.20
2009,04,24,12,34,10.20
2009,04,24,12,35,10.20
2009,04,24,12,36,10.10
2009,04,24,12,37,10.10
2009,04,24,12,38,10.10
2009,04,24,12,39,10.10
2009,04,24,12,40,10.10
2009,04,24,12,41,10.10
2009,04,24,12,42,10.10
2009,04,24,12,43,10.10
2009,04,24,12,44,10.10
2009,04,24,12,45,10.10
2009,04,24,12,46,10.10
2009,04,24,12,47,10.10
2009,04,24,12,48,10.20
2009,04,24,12,49,10.20
2009,04,24,12,50,10.30
2009,04,24,12,51,10.40
2009,04,24,12,52,10.40
2009,04,24,12,53,10.40
2009,04,24,12,54,10.40
2009,04,24,12,55,10.40
2009,04,24,12,56,10.40
2009,04,24,12,57,10.40
2009,04,24,12,58,10.40
2009,04,24,12,59,10.40
2009,04,24,13,00,10.40
2009,04,24,13,01,10.40
2009,04,24,13,02,10.40
2009,04,24,13,03,10.60
2009,04,24,13,04,10.60
2009,04,24,13,05,10.60
2009,04,24,13,06,10.70
2009,04,24,13,07,10.80
2009,04,24,13,08,10.80
2009,04,24,13,09,10.90
2009,04,24,13,10,10.90
2009,04,24,13,11,10.90
2009,04,24,13,12,10.90
2009,04,24,13,13,10.90
2009,04,24,13,14,10.80
2009,04,24,13,15,10.90
2009,04,24,13,16,10.90
2009,04,24,13,17,10.90
2009,04,24,13,18,10.90
2009,04,24,13,19,10.90
2009,04,24,13,20,10.90
2009,04,24,13,21,10.90
2009,04,24,13,22,10.90
2009,04,24,13,23,10.90
2009,04,24,13,24,10.90
2009,04,24,13,25,10.90
2009,04,24,13,26,10.90
2009,04,24,13,27,10.90
2009,04,24,13,28,10.90
2009,04,24,13,29,10.90
2009,04,24,13,30,10.90
2009,04,24,13,31,10.90
2009,04,24,13,32,10.90
2009,04,24,13,33,11.00
2009,04,24,13,34,11.10
2009,04,24,13,35,11.10
2009,04,24,13,36,11.10
2009,04,24,13,37,11.10
2009,04,24,13,38,11.10
2009,04,24,13,39,11.30
2009,04,24,13,40,11.50
2009,04,24,13,41,11.60
2009,04,24,13,42,11.70
2009,04,24,13,43,11.80
2009,04,24,13,44,11.90
2009,04,24,13,45,12.00
2009,04,24,13,46,12.10
2009,04,24,13,47,12.00
2009,04,24,13,48,12.00
2009,04,24,13,49,12.00
2009,04,24,13,50,12.00
2009,04,24,13,51,12.00
2009,04,24,13,52,12.00
2009,04,24,13,53,12.00
2009,04,24,13,54,11.90
2009,04,24,13,55,11.80
2009,04,24,13,56,11.80
2009,04,24,13,57,11.60
2009,04,24,13,58,11.60
2009,04,24,13,59,11.40
2009,04,24,14,00,11.40
2009,04,24,14,01,11.40
2009,04,24,14,02,11.30
2009,04,24,14,03,11.30
2009,04,24,14,04,11.30
2009,04,24,14,05,11.30
2009,04,24,14,06,11.30
2009,04,24,14,07,11.20
2009,04,24,14,08,11.20
2009,04,24,14,09,11.30
2009,04,24,14,10,11.40
2009,04,24,14,11,11.40
2009,04,24,14,12,11.40
2009,04,24,14,13,11.40
2009,04,24,14,14,11.40
2009,04,24,14,15,11.40
2009,04,24,14,16,11.40
2009,04,24,14,17,11.40
2009,04,24,14,18,11.50
2009,04,24,14,19,11.60
2009,04,24,14,20,11.60
2009,04,24,14,21,11.60
2009,04,24,14,22,11.70
2009,04,24,14,23,11.80
2009,04,24,14,24,11.80
2009,04,24,14,25,11.90
2009,04,24,14,26,12.00
2009,04,24,14,27,12.00
2009,04,24,14,28,12.00
2009,04,24,14,29,11.90
2009,04,24,14,30,11.90
2009,04,24,14,31,11.80
2009,04,24,14,32,11.80
2009,04,24,14,33,11.70
2009,04,24,14,34,11.60
2009,04,24,14,35,11.60
2009,04,24,14,36,11.60
2009,04,24,14,37,11.60
2009,04,24,14,38,11.60
2009,04,24,14,39,11.60
2009,04,24,14,40,11.70
2009,04,24,14,41,11.70
2009,04,24,14,42,11.80
2009,04,24,14,43,11.80
2009,04,24,14,44,11.80
2009,04,24,14,45,11.80
2009,04,24,14,46,11.80
2009,04,24,14,47,11.80
2009,04,24,14,48,11.80
2009,04,24,14,49,11.80
2009,04,24,14,50,11.80
2009,04,24,14,51,11.80
2009,04,24,14,52,11.80
2009,04,24,14,53,11.80
2009,04,24,14,54,11.80
2009,04,24,14,55,11.90
2009,04,24,14,56,12.00
2009,04,24,14,57,12.10
2009,04,24,14,58,12.30
2009,04,24,14,59,12.50
2009,04,24,15,00,12.60
2009,04,24,15,01,12.60
2009,04,24,15,02,12.60
2009,04,24,15,03,12.60
2009,04,24,15,04,12.50
2009,04,24,15,05,12.40
2009,04,24,15,06,12.30
2009,04,24,15,07,12.20
2009,04,24,15,08,12.10
2009,04,24,15,09,12.00
2009,04,24,15,10,12.00
2009,04,24,15,11,12.10
2009,04,24,15,12,12.20
2009,04,24,15,13,12.20
2009,04,24,15,14,12.30
2009,04,24,15,15,12.30
2009,04,24,15,16,12.40
2009,04,24,15,17,12.30
2009,04,24,15,18,12.30
2009,04,24,15,19,12.30
2009,04,24,15,20,12.20
2009,04,24,15,21,12.30
2009,04,24,15,22,12.20
2009,04,24,15,23,12.10
2009,04,24,15,24,12.00
2009,04,24,15,25,11.90
2009,04,24,15,26,11.90
2009,04,24,15,27,11.90
2009,04,24,15,28,12.00
2009,04,24,15,29,12.00
2009,04,24,15,30,12.00
2009,04,24,15,31,11.90
2009,04,24,15,32,12.00
2009,04,24,15,33,12.00
2009,04,24,15,34,12.00
2009,04,24,15,35,12.00
2009,04,24,15,36,11.90
2009,04,24,15,37,11.80
2009,04,24,15,38,11.90
2009,04,24,15,39,12.10
2009,04,24,15,40,12.30
2009,04,24,15,41,12.30
2009,04,24,15,42,12.30
2009,04,24,15,43,12.30
2009,04,24,15,44,12.30
2009,04,24,15,45,12.30
2009,04,24,15,46,12.30
2009,04,24,15,47,12.30
2009,04,24,15,48,12.30
2009,04,24,15,49,12.30
2009,04,24,15,50,12.20
2009,04,24,15,51,12.10
2009,04,24,15,52,12.00
2009,04,24,15,53,11.90
2009,04,24,15,54,12.00
2009,04,24,15,55,12.00
2009,04,24,15,56,12.10
2009,04,24,15,57,12.20
2009,04,24,15,58,12.20
2009,04,24,15,59,12.20
2009,04,24,16,00,12.30
2009,04,24,16,01,12.30
2009,04,24,16,02,12.30
2009,04,24,16,03,12.30
2009,04,24,16,04,12.30
2009,04,24,16,05,12.30
2009,04,24,16,06,12.30
2009,04,24,16,07,12.20
2009,04,24,16,08,12.10
2009,04,24,16,09,12.00
2009,04,24,16,10,12.00
2009,04,24,16,11,11.90
2009,04,24,16,12,11.80
2009,04,24,16,13,11.90
2009,04,24,16,14,11.90
2009,04,24,16,15,12.00
2009,04,24,16,16,12.00
2009,04,24,16,17,12.00
2009,04,24,16,18,12.00
2009,04,24,16,19,12.00
2009,04,24,16,20,11.90
2009,04,24,16,21,11.90
2009,04,24,16,22,11.80
2009,04,24,16,23,11.70
2009,04,24,16,24,11.60
2009,04,24,16,25,11.60
2009,04,24,16,26,11.60
2009,04,24,16,27,11.60
2009,04,24,16,28,11.60
2009,04,24,16,29,11.70
2009,04,24,16,30,11.70
2009,04,24,16,31,11.70
2009,04,24,16,32,11.80
2009,04,24,16,33,11.80
2009,04,24,16,34,11.80
2009,04,24,16,35,11.80
2009,04,24,16,36,11.80
2009,04,24,16,37,11.70
2009,04,24,16,38,11.60
2009,04,24,16,39,11.60
2009,04,24,16,40,11.60
2009,04,24,16,41,11.60
2009,04,24,16,42,11.60
2009,04,24,16,43,11.70
2009,04,24,16,44,11.70
2009,04,24,16,45,11.70
2009,04,24,16,46,11.70
2009,04,24,16,47,11.80
2009,04,24,16,48,11.80
2009,04,24,16,49,11.80
2009,04,24,16,50,11.90
2009,04,24,16,51,12.00
2009,04,24,16,52,12.10
2009,04,24,16,53,12.10
2009,04,24,16,54,12.10
2009,04,24,16,55,12.30
2009,04,24,16,56,12.30
2009,04,24,16,57,12.30
2009,04,24,16,58,12.20
2009,04,24,16,59,12.10
2009,04,24,17,00,12.00
2009,04,24,17,01,12.00
2009,04,24,17,02,11.90
2009,04,24,17,03,11.90
2009,04,24,17,04,11.80
2009,04,24,17,05,11.80
2009,04,24,17,06,11.80
2009,04,24,17,07,11.80
2009,04,24,17,08,11.90
2009,04,24,17,09,11.90
2009,04,24,17,10,11.80
2009,04,24,17,11,11.80
2009,04,24,17,12,11.90
2009,04,24,17,13,11.90
2009,04,24,17,14,11.80
2009,04,24,17,15,11.80
2009,04,24,17,16,11.90
2009,04,24,17,17,12.00
2009,04,24,17,18,12.00
2009,04,24,17,19,12.00
2009,04,24,17,20,12.00
2009,04,24,17,21,11.90
2009,04,24,17,22,11.80
2009,04,24,17,23,11.80
2009,04,24,17,24,11.80
2009,04,24,17,25,11.80
2009,04,24,17,26,11.80
2009,04,24,17,27,11.80
2009,04,24,17,28,11.70
2009,04,24,17,29,11.70
2009,04,24,17,30,11.70
2009,04,24,17,31,11.60
2009,04,24,17,32,11.60
2009,04,24,17,33,11.60
2009,04,24,17,34,11.60
2009,04,24,17,35,11.70
2009,04,24,17,36,11.80
2009,04,24,17,37,11.80
2009,04,24,17,38,11.90
2009,04,24,17,39,11.90
2009,04,24,17,40,11.90
2009,04,24,17,41,11.90
2009,04,24,17,42,11.80
2009,04,24,17,43,11.80
2009,04,24,17,44,11.90
2009,04,24,17,45,11.90
2009,04,24,17,46,12.00
2009,04,24,17,47,12.00
2009,04,24,17,48,12.00
2009,04,24,17,49,12.00